[[{"header":{"parameterUnit":"m.s-1","parameterCategory":1,"la1":30.2991,"la2":30.254,"lo1":-89.0895,"lo2":-89.0444,"dx":0.0017,"dy":0.0017,"nx":28,"ny":28,"refTime":"2022-12-24T09:00:00:Z","depth":0,"parameterNumber":2,"parameterNumberName":"U-component_of_WINDS"},"data":[0,0,0,0,0,0,0,0,0,0,0,0,0,0,0,0,0,0,0,0,0,0,0,0,0,0,0,0,0,0,0,0,0,0,0,0,0,0,0,0,0,0,0,0,0,0,0,0,0,0,0,0,0,0,0,0,0,0,0.5449,0.5448,0,0.5426,0.5426,0.5426,0.5434,0.5434,0.5435,0.5435,0.5411,0.541,0.5408,0,0,0,0,0,0,0,0,0,0,0,0,0,0.5498,0.5497,0.5449,0.5448,0.5448,0.5426,0.5426,0.5425,0.5434,0.5434,0.5435,0.5435,0.5411,0.541,0.5408,0,0,0,0,0,0,0,0,0,0,0,0,0,0.5476,0.5497,0.5449,0.545,0.5449,0.5426,0.5426,0.5425,0.5433,0.5434,0.5435,0.5436,0.5411,0.541,0.5408,0.5382,0,0,0.5403,0.5402,0,0,0,0,0,0,0,0,0.5477,0.5474,0.545,0.5449,0.5449,0.5433,0.5434,0.5411,0.5433,0.5439,0.5435,0.5436,0.5418,0.5415,0.5409,0.5381,0.538,0.5403,0.5402,0.5401,0.5401,0,0,0,0,0,0,0,0.5479,0.5475,0.544,0.5449,0.5449,0.5451,0.5448,0.543,0.5424,0.5439,0.5439,0.5437,0.5418,0.5411,0.5409,0.538,0.5403,0.5401,0.54,0.54,0.5329,0.5328,0,0,0,0,0,0,0.5481,0.5477,0.544,0.5439,0.5465,0.5449,0.5447,0.5438,0.5425,0.5423,0.5436,0.5437,0.5414,0.5411,0.5408,0.5377,0.5401,0.54,0.5399,0.533,0.5329,0.5328,0,0,0,0,0,0,0.5482,0.5477,0.5441,0.5458,0.5453,0.5448,0.5437,0.5437,0.543,0.5423,0.5422,0.543,0.5414,0.541,0.5389,0.5376,0.5399,0.5397,0.5331,0.533,0.5329,0.5314,0,0,0,0,0,0,0.5483,0.5478,0.5468,0.5458,0.5453,0.5422,0.5437,0.5436,0.5428,0.5429,0.5417,0.5416,0.5414,0.5391,0.5387,0.5374,0.5396,0.5332,0.5331,0.5329,0.5315,0.5312,0.5309,0,0,0,0,0,0.5485,0.5464,0.5467,0.5463,0.544,0.5422,0.5419,0.5418,0.5427,0.5416,0.5412,0.5416,0.5378,0.5389,0.5384,0.537,0.5333,0.5331,0.5329,0.5317,0.5313,0.5309,0,0,0,0,0,0,0.5473,0.5463,0.5466,0.5442,0.5433,0.5423,0.541,0.5414,0.5402,0.5403,0.5402,0.54,0.5377,0.5372,0.5384,0.5345,0.5357,0.5354,0.5349,0.5345,0.5342,0.5343,0.5394,0,0,0,0,0,0.5467,0.5453,0.5446,0.5425,0.542,0.5416,0.5408,0.5408,0.5399,0.5394,0.5388,0.5378,0.5364,0.5354,0.5341,0.5315,0.5312,0.5303,0.53,0.5298,0.5295,0.528,0.5276,0.5322,0.5322,0.5322,0,0,0.5456,0.5449,0.544,0.5422,0.5415,0.54,0.5413,0.5397,0.5385,0.5392,0.5371,0.5366,0.5355,0.5331,0.532,0.5325,0.5282,0.5295,0.5294,0.5292,0.5278,0.5274,0.527,0.5321,0.5321,0.5321,0,0,0.5427,0.542,0.5402,0.5395,0.5384,0.5382,0.5378,0.5368,0.5365,0.5344,0.5349,0.5335,0.5311,0.5303,0.5296,0.5265,0.5268,0.526,0.5244,0.523,0.5226,0.5223,0.5211,0.5207,0.5258,0.5258,0.5258,0,0.5413,0.5391,0.5392,0.5376,0.5368,0.5374,0.5355,0.5348,0.5333,0.5328,0.5335,0.5305,0.5297,0.5271,0.5264,0.5258,0.5253,0.5261,0.5227,0.5224,0.5221,0.5209,0.5205,0.5257,0.5257,0.5257,0.5257,0,0.5375,0.536,0.5347,0.5333,0.5323,0.5306,0.5304,0.5294,0.5296,0.5293,0.5271,0.5264,0.5248,0.5243,0.5244,0.5217,0.5221,0.5227,0.5239,0.5215,0.5204,0.52,0.5255,0.5256,0.5256,0.5256,0,0,0.5336,0.5324,0.5319,0.5313,0.5302,0.529,0.5273,0.5259,0.525,0.524,0.5225,0.5205,0.5212,0.5203,0.5204,0.5192,0.5167,0.52,0.5199,0.5193,0.5135,0.5129,0.5124,0.517,0.5169,0.5168,0.5136,0,0.5306,0.5276,0.5276,0.5249,0.5234,0.5241,0.5226,0.5217,0.5214,0.5201,0.5198,0.5183,0.5193,0.5188,0.5177,0.5172,0.5155,0.5175,0.5155,0.5154,0.5156,0.5119,0.5112,0.5082,0.5132,0.5131,0.5131,0,0.5265,0.5255,0.5225,0.5217,0.5211,0.5197,0.5184,0.5173,0.5163,0.5162,0.5153,0.5156,0.5138,0.5152,0.5127,0.514,0.5133,0.5129,0.5128,0.5125,0.514,0.5113,0.5073,0.5068,0.5124,0.5125,0.5125,0,0.5239,0.5217,0.5196,0.5191,0.5181,0.5171,0.5166,0.5158,0.5149,0.5138,0.5133,0.512,0.5112,0.5102,0.5101,0.5111,0.5076,0.5089,0.5073,0.5073,0.5064,0.5064,0.502,0.5062,0.5062,0.5062,0.5062,0,0.5203,0.5185,0.5184,0.5171,0.5151,0.5152,0.5132,0.5128,0.5121,0.5107,0.5112,0.5099,0.5099,0.5086,0.5085,0.5065,0.5062,0.5059,0.5059,0.5058,0.5058,0.5052,0.5053,0.5061,0.5061,0.5061,0.5061,0,0.5169,0.5168,0.5146,0.5139,0.5137,0.5122,0.5115,0.5103,0.5101,0.5084,0.508,0.5076,0.5061,0.5059,0.5041,0.5041,0.5016,0.5018,0.5019,0.5018,0.5002,0.5003,0.4951,0.4944,0.4991,0.4991,0.499,0,0.5146,0.5132,0.5123,0.5115,0.511,0.5096,0.5087,0.5089,0.508,0.5068,0.5057,0.5043,0.5031,0.5006,0.5002,0.4988,0.499,0.4973,0.4988,0.4987,0.4988,0.4988,0.4986,0.4969,0.4969,0.4968,0.4968,0,0.5105,0.5105,0.5093,0.5081,0.5071,0.5061,0.5052,0.5044,0.5044,0.5034,0.5019,0.501,0.4992,0.4977,0.4964,0.4959,0.4963,0.4963,0.4959,0.4957,0.4957,0.4955,0.5009,0.4964,0.4964,0.4965,0.4965,0.4965,0.5075,0.5062,0.5054,0.5041,0.5034,0.5026,0.5014,0.501,0.4998,0.4984,0.4985,0.4968,0.496,0.4942,0.4936,0.4923,0.4928,0.4922,0.492,0.4918,0.4916,0.4961,0.4921,0.4921,0.4921,0.4921,0.4921,0,0.5033,0.5028,0.5015,0.5003,0.4992,0.4998,0.4989,0.4979,0.4964,0.4956,0.4944,0.4927,0.4913,0.4908,0.4894,0.4884,0.4885,0.488,0.488,0.4878,0.4912,0.4917,0.4879,0.4879,0.4879,0.4879,0.4879,0.4879,0.5009,0.4989,0.4988,0.4964,0.496,0.4943,0.4937,0.4929,0.4923,0.4903,0.4892,0.4889,0.4882,0.4868,0.4855,0.4854,0.4848,0.4841,0.4841,0.4872,0.4876,0.488,0.4885,0.484,0.484,0.4808,0.4808,0.4808]},{"header":{"parameterUnit":"m.s-1","parameterCategory":1,"la1":30.2991,"la2":30.254,"lo1":-89.0895,"lo2":-89.0444,"dx":0.0017,"dy":0.0017,"nx":28,"ny":28,"refTime":"2022-12-24T09:00:00:Z","depth":0,"parameterNumber":3,"parameterNumberName":"V-component_of_WINDS"},"data":[0,0,0,0,0,0,0,0,0,0,0,0,0,0,0,0,0,0,0,0,0,0,0,0,0,0,0,0,0,0,0,0,0,0,0,0,0,0,0,0,0,0,0,0,0,0,0,0,0,0,0,0,0,0,0,0,0,0,-3.3354,-3.3355,0,-3.3408,-3.3408,-3.3409,-3.3395,-3.3394,-3.3393,-3.3392,-3.3443,-3.3445,-3.3448,0,0,0,0,0,0,0,0,0,0,0,0,0,-3.3238,-3.324,-3.3354,-3.3355,-3.3355,-3.3408,-3.3408,-3.3409,-3.3395,-3.3394,-3.3393,-3.3391,-3.3442,-3.3445,-3.3448,0,0,0,0,0,0,0,0,0,0,0,0,0,-3.3289,-3.3241,-3.3354,-3.3355,-3.3356,-3.3407,-3.3408,-3.3409,-3.3395,-3.3394,-3.3392,-3.3391,-3.3441,-3.3445,-3.3448,-3.3501,0,0,-3.3459,-3.3461,0,0,0,0,0,0,0,0,-3.3286,-3.3294,-3.3354,-3.3355,-3.3356,-3.3393,-3.3386,-3.344,-3.3396,-3.338,-3.3392,-3.339,-3.3428,-3.3432,-3.3445,-3.3504,-3.3506,-3.3459,-3.3461,-3.3463,-3.3464,0,0,0,0,0,0,0,-3.3283,-3.3291,-3.3375,-3.3355,-3.3356,-3.3352,-3.3358,-3.3396,-3.3412,-3.3381,-3.3381,-3.3387,-3.3428,-3.3442,-3.3447,-3.3507,-3.3459,-3.3462,-3.3465,-3.3466,-3.3613,-3.3615,0,0,0,0,0,0,-3.3279,-3.3288,-3.3373,-3.3377,-3.3317,-3.3355,-3.3362,-3.3383,-3.3411,-3.3414,-3.3389,-3.3386,-3.3437,-3.3442,-3.3448,-3.3514,-3.3463,-3.3466,-3.3468,-3.3611,-3.3614,-3.3615,0,0,0,0,0,0,-3.3277,-3.3287,-3.3371,-3.3332,-3.3343,-3.3359,-3.3383,-3.3385,-3.3399,-3.3417,-3.3419,-3.3401,-3.3436,-3.3443,-3.3489,-3.3516,-3.3468,-3.3471,-3.3609,-3.3612,-3.3615,-3.3645,0,0,0,0,0,0,-3.3273,-3.3286,-3.3307,-3.3333,-3.3345,-3.3412,-3.3384,-3.3387,-3.3406,-3.3403,-3.3429,-3.3432,-3.3435,-3.3484,-3.3493,-3.352,-3.3474,-3.3607,-3.361,-3.3614,-3.3642,-3.3649,-3.3654,0,0,0,0,0,-3.3269,-3.3312,-3.3308,-3.3318,-3.3372,-3.3414,-3.342,-3.3425,-3.3408,-3.3429,-3.344,-3.3431,-3.3511,-3.3489,-3.3498,-3.3527,-3.3605,-3.3609,-3.3613,-3.3639,-3.3647,-3.3654,0,0,0,0,0,0,-3.3287,-3.3315,-3.3311,-3.3364,-3.3387,-3.3411,-3.3438,-3.3433,-3.346,-3.3456,-3.3459,-3.3465,-3.3513,-3.3524,-3.3498,-3.3581,-3.3556,-3.3562,-3.3572,-3.358,-3.3586,-3.3583,-3.3477,0,0,0,0,0,-3.3297,-3.333,-3.3352,-3.3397,-3.3409,-3.3421,-3.344,-3.3441,-3.3464,-3.3473,-3.3488,-3.351,-3.3541,-3.356,-3.3589,-3.3643,-3.3649,-3.3667,-3.3674,-3.3679,-3.3684,-3.3716,-3.3724,-3.3629,-3.3629,-3.3629,0,0,-3.3318,-3.3338,-3.3358,-3.3401,-3.3419,-3.3452,-3.3429,-3.3465,-3.349,-3.3478,-3.3524,-3.3535,-3.356,-3.3611,-3.3633,-3.3621,-3.3712,-3.3684,-3.3688,-3.3691,-3.3721,-3.373,-3.3738,-3.3632,-3.3631,-3.3631,0,0,-3.3375,-3.3392,-3.3432,-3.3451,-3.3479,-3.3487,-3.3497,-3.3523,-3.3531,-3.3576,-3.3569,-3.3597,-3.3649,-3.3668,-3.3684,-3.3749,-3.3742,-3.3758,-3.3791,-3.3821,-3.3829,-3.3835,-3.386,-3.3869,-3.3763,-3.3763,-3.3763,0,-3.3397,-3.3449,-3.3453,-3.3491,-3.351,-3.3503,-3.3544,-3.3561,-3.3596,-3.3609,-3.3595,-3.3662,-3.3677,-3.3734,-3.375,-3.3762,-3.3774,-3.3755,-3.3827,-3.3834,-3.3841,-3.3864,-3.3874,-3.3765,-3.3765,-3.3765,-3.3764,0,-3.3476,-3.3512,-3.354,-3.3577,-3.3599,-3.3638,-3.3648,-3.367,-3.367,-3.368,-3.3727,-3.3745,-3.3779,-3.3792,-3.3791,-3.3848,-3.384,-3.3827,-3.3802,-3.3852,-3.3874,-3.3883,-3.3768,-3.3767,-3.3767,-3.3766,0,0,-3.3545,-3.3585,-3.3596,-3.3613,-3.3644,-3.3671,-3.3709,-3.3744,-3.3763,-3.3788,-3.3821,-3.3865,-3.3854,-3.3872,-3.3873,-3.39,-3.3952,-3.3883,-3.3884,-3.3897,-3.4018,-3.403,-3.404,-3.3947,-3.3949,-3.395,-3.4017,0,-3.3606,-3.3676,-3.3682,-3.3744,-3.3778,-3.3771,-3.3805,-3.3827,-3.3837,-3.3867,-3.3877,-3.391,-3.3891,-3.3903,-3.3928,-3.394,-3.3977,-3.3935,-3.3978,-3.398,-3.3974,-3.4052,-3.4063,-3.4126,-3.4026,-3.4027,-3.4028,0,-3.3686,-3.3716,-3.3782,-3.381,-3.3824,-3.3855,-3.3888,-3.3916,-3.3941,-3.3946,-3.3968,-3.3965,-3.4005,-3.3978,-3.4032,-3.4004,-3.4022,-3.403,-3.4033,-3.4038,-3.4008,-3.4061,-3.4146,-3.4156,-3.4042,-3.4041,-3.404,0,-3.3733,-3.3788,-3.3836,-3.3851,-3.3884,-3.3906,-3.392,-3.3944,-3.3965,-3.3993,-3.4006,-3.4038,-3.4055,-3.4079,-3.4086,-3.4065,-3.4141,-3.4114,-3.4147,-3.4147,-3.4165,-3.4164,-3.4256,-3.4173,-3.4173,-3.4173,-3.4173,0,-3.3801,-3.3843,-3.3858,-3.3888,-3.3934,-3.394,-3.3985,-3.3998,-3.402,-3.4051,-3.4046,-3.4076,-3.4081,-3.4112,-3.4117,-3.4163,-3.417,-3.4176,-3.4177,-3.4178,-3.4177,-3.419,-3.4187,-3.4175,-3.4175,-3.4174,-3.4174,0,-3.3862,-3.3874,-3.3926,-3.3953,-3.3961,-3.3994,-3.4018,-3.4046,-3.4056,-3.4096,-3.4106,-3.412,-3.4157,-3.4165,-3.4207,-3.421,-3.4265,-3.4261,-3.4258,-3.4258,-3.4292,-3.4289,-3.4396,-3.4411,-3.4317,-3.4318,-3.4319,0,-3.3906,-3.3938,-3.397,-3.3992,-3.4008,-3.4042,-3.4064,-3.4071,-3.4094,-3.4126,-3.415,-3.4186,-3.4215,-3.4273,-3.4287,-3.4319,-3.4317,-3.4353,-3.4322,-3.4322,-3.432,-3.4319,-3.4323,-3.4359,-3.436,-3.4361,-3.4361,0,-3.3983,-3.3988,-3.402,-3.4056,-3.4082,-3.411,-3.4136,-3.4153,-3.4164,-3.4189,-3.4227,-3.425,-3.4295,-3.433,-3.4363,-3.4377,-3.4372,-3.4371,-3.4381,-3.4383,-3.438,-3.4384,-3.4276,-3.4369,-3.4368,-3.4367,-3.4367,-3.4367,-3.4038,-3.4067,-3.4095,-3.4132,-3.4153,-3.4178,-3.4207,-3.4221,-3.4253,-3.4291,-3.4292,-3.4334,-3.4358,-3.4403,-3.4419,-3.4451,-3.444,-3.4453,-3.4457,-3.4461,-3.4466,-3.4374,-3.4456,-3.4456,-3.4456,-3.4456,-3.4456,0,-3.4117,-3.4135,-3.4169,-3.4207,-3.4236,-3.4229,-3.4258,-3.4283,-3.432,-3.4344,-3.4374,-3.4418,-3.4453,-3.447,-3.4505,-3.4528,-3.4526,-3.4537,-3.4536,-3.454,-3.4472,-3.4461,-3.4538,-3.4538,-3.4538,-3.4538,-3.4538,-3.4538,-3.4162,-3.4212,-3.422,-3.428,-3.4297,-3.434,-3.4357,-3.438,-3.44,-3.445,-3.448,-3.4492,-3.4513,-3.455,-3.4582,-3.4586,-3.46,-3.4613,-3.4615,-3.4552,-3.4544,-3.4536,-3.4526,-3.4615,-3.4615,-3.4681,-3.4681,-3.4682]}]]